Soldotna, AK

3:41 AM AKDT on April 29, 2017 (GMT -0800)
Soldotna

Weather History for PASX - February, 2014

Change the Weather History Date:

Tuesday, February 4, 2014

  Actual Average Record
Temperature  
Mean Temperature 22 °F -  
Max Temperature 33 °F 22 °F 43 °F (1983)
Min Temperature 12 °F 5 °F -41 °F (1999)
Degree Days  
Heating Degree Days 42    
Moisture  
Dew Point 15 °F    
Average Humidity 71    
Maximum Humidity 86    
Minimum Humidity 52    
Precipitation  
Precipitation 0.00 in - - ()
Sea Level Pressure  
Sea Level Pressure 30.65 in    
Wind  
Wind Speed 3 mph (East)    
Max Wind Speed 10 mph    
Max Gust Speed -    
Visibility 10 miles    
Events      
Averages and records for this station are not official NWS values.
T = Trace of Precipitation, MM = Missing Value Source: NWS Daily Summary

Daily Weather History Graph

Daily Weather History Graph

Search for Another Location

Airport or City:

Trip Planner

Search our weather history database for the weather conditions in past years. The results will help you decide how hot, cold, wet, or windy it might be!

Date:

Astronomy

Feb. 04, 2014 Rise Set
Actual Time 9:12 AM AKST 5:24 PM AKST
Civil Twilight 8:25 AM AKST 6:11 PM AKST
Nautical Twilight 7:34 AM AKST 7:02 PM AKST
Astronomical Twilight 6:45 AM AKST 7:52 PM AKST
Moon 10:17 AM AKST (2/4) No Moon Set
Length of Visible Light 9h 46m
Length of Day
8h 12m
Waxing Crescent, 30% of the Moon is Illuminated
Feb 4
Waxing Crescent
Feb 6
First Quarter
Feb 14
Full
Feb 22
Last Quarter
Feb 28
New

Hourly Weather History & Observations

Time (AKST) Temp. Windchill Dew Point Humidity Pressure Visibility Wind Dir Wind Speed Gust Speed Precip Events Conditions
12:16 AM 28.4 °F 19.1 °F 14.0 °F 55% 30.53 in 10.0 mi ENE 10.4 mph - N/A   Overcast
12:36 AM 28.4 °F 22.2 °F 14.0 °F 55% 30.54 in 10.0 mi East 5.8 mph - N/A   Overcast
12:56 AM 28.4 °F 24.6 °F 14.0 °F 55% 30.55 in 10.0 mi ENE 3.5 mph - N/A   Overcast
1:16 AM 28.4 °F 23.3 °F 15.8 °F 59% 30.55 in 10.0 mi East 4.6 mph - N/A   Overcast
1:36 AM 26.6 °F 22.6 °F 15.8 °F 64% 30.56 in 10.0 mi ENE 3.5 mph - N/A   Overcast
1:56 AM 26.6 °F - 15.8 °F 64% 30.56 in 10.0 mi Calm Calm - N/A   Mostly Cloudy
2:16 AM 26.6 °F 22.6 °F 14.0 °F 59% 30.57 in 10.0 mi East 3.5 mph - N/A   Mostly Cloudy
2:36 AM 26.6 °F 21.2 °F 15.8 °F 64% 30.57 in 10.0 mi ENE 4.6 mph - N/A   Overcast
2:56 AM 24.8 °F 20.5 °F 14.0 °F 64% 30.57 in 10.0 mi East 3.5 mph - N/A   Mostly Cloudy
3:16 AM 24.8 °F 20.5 °F 15.8 °F 69% 30.58 in 10.0 mi ENE 3.5 mph - N/A   Partly Cloudy
3:36 AM 24.8 °F - 14.0 °F 64% 30.58 in 10.0 mi Calm Calm - N/A   Clear
3:56 AM 23.0 °F 18.4 °F 14.0 °F 68% 30.58 in 10.0 mi East 3.5 mph - N/A   Clear
4:16 AM 24.8 °F 20.5 °F 14.0 °F 64% 30.58 in 10.0 mi East 3.5 mph - N/A   Clear
4:36 AM 23.0 °F 17.0 °F 15.8 °F 74% 30.58 in 10.0 mi East 4.6 mph - N/A   Clear
4:56 AM 23.0 °F 18.4 °F 15.8 °F 74% 30.58 in 10.0 mi ESE 3.5 mph - N/A   Clear
5:16 AM 23.0 °F 18.4 °F 15.8 °F 74% 30.58 in 10.0 mi East 3.5 mph - N/A   Scattered Clouds
5:36 AM 23.0 °F 18.4 °F 15.8 °F 74% 30.58 in 10.0 mi East 3.5 mph - N/A   Mostly Cloudy
5:56 AM 23.0 °F - 15.8 °F 74% 30.58 in 10.0 mi Calm Calm - N/A   Overcast
6:16 AM 23.0 °F - 15.8 °F 74% 30.59 in 10.0 mi Calm Calm - N/A   Overcast
6:36 AM 21.2 °F - 14.0 °F 74% 30.59 in 10.0 mi Calm Calm - N/A   Overcast
6:56 AM 19.4 °F - 14.0 °F 80% 30.59 in 10.0 mi Calm Calm - N/A   Mostly Cloudy
7:16 AM 21.2 °F - 15.8 °F 80% 30.59 in 10.0 mi Calm Calm - N/A   Mostly Cloudy
7:36 AM 19.4 °F 14.3 °F 14.0 °F 80% 30.60 in 10.0 mi ESE 3.5 mph - N/A   Mostly Cloudy
7:56 AM 19.4 °F 14.3 °F 15.8 °F 86% 30.60 in 10.0 mi ESE 3.5 mph - N/A   Mostly Cloudy
8:16 AM 19.4 °F - 12.2 °F 74% 30.61 in 10.0 mi Calm Calm - N/A   Overcast
8:36 AM 19.4 °F - 12.2 °F 74% 30.61 in 10.0 mi Calm Calm - N/A   Overcast
8:56 AM 19.4 °F - 15.8 °F 86% 30.61 in 10.0 mi Calm Calm - N/A   Mostly Cloudy
9:16 AM 17.6 °F - 12.2 °F 79% 30.62 in 10.0 mi Calm Calm - N/A   Partly Cloudy
9:36 AM 19.4 °F - 15.8 °F 86% 30.63 in 10.0 mi Calm Calm - N/A   Clear
9:56 AM 17.6 °F - 12.2 °F 79% 30.64 in 10.0 mi Calm Calm - N/A   Clear
10:16 AM 17.6 °F - 10.4 °F 73% 30.65 in 10.0 mi Calm Calm - N/A   Clear
10:36 AM 17.6 °F - 12.2 °F 79% 30.65 in 10.0 mi Calm Calm - N/A   Clear
10:56 AM 17.6 °F - 14.0 °F 86% 30.65 in 10.0 mi Calm Calm - N/A   Clear
11:16 AM 19.4 °F - 15.8 °F 86% 30.66 in 10.0 mi Calm Calm - N/A   Clear
11:36 AM 23.0 °F - 15.8 °F 74% 30.66 in 10.0 mi Calm Calm - N/A   Clear
11:56 AM 24.8 °F - 17.6 °F 74% 30.67 in 10.0 mi Calm Calm - N/A   Clear
12:16 PM 26.6 °F 22.6 °F 17.6 °F 69% 30.67 in 10.0 mi East 3.5 mph - N/A   Clear
12:36 PM 28.4 °F 24.6 °F 17.6 °F 64% 30.67 in 10.0 mi SE 3.5 mph - N/A   Clear
12:56 PM 28.4 °F 24.6 °F 17.6 °F 64% 30.67 in 10.0 mi East 3.5 mph - N/A   Clear
1:16 PM 28.4 °F 23.3 °F 19.4 °F 69% 30.66 in 10.0 mi ESE 4.6 mph - N/A   Clear
1:36 PM 30.2 °F 26.7 °F 17.6 °F 60% 30.66 in 10.0 mi SE 3.5 mph - N/A   Clear
1:56 PM 30.2 °F 26.7 °F 17.6 °F 60% 30.66 in 10.0 mi SE 3.5 mph - N/A   Clear
2:16 PM 32.0 °F - 19.4 °F 60% 30.66 in 10.0 mi Calm Calm - N/A   Clear
2:36 PM 33.8 °F 30.8 °F 19.4 °F 56% 30.66 in 10.0 mi ESE 3.5 mph - N/A   Clear
2:56 PM 33.8 °F - 19.4 °F 56% 30.66 in 10.0 mi Calm Calm - N/A   Clear
3:16 PM 33.8 °F - 19.4 °F 56% 30.67 in 10.0 mi Calm Calm - N/A   Clear
3:36 PM 33.8 °F 29.6 °F 19.4 °F 56% 30.67 in 10.0 mi NE 4.6 mph - N/A   Clear
3:56 PM 33.8 °F 29.6 °F 17.6 °F 52% 30.67 in 10.0 mi NE 4.6 mph - N/A   Clear
4:16 PM 33.8 °F 30.8 °F 19.4 °F 56% 30.67 in 10.0 mi NE 3.5 mph - N/A   Clear
4:36 PM 33.8 °F 29.6 °F 17.6 °F 52% 30.67 in 10.0 mi NE 4.6 mph - N/A   Clear
4:56 PM 30.2 °F - 15.8 °F 55% 30.68 in 10.0 mi Calm Calm - N/A   Clear
5:16 PM 28.4 °F - 17.6 °F 64% 30.69 in 10.0 mi Calm Calm - N/A   Clear
5:36 PM 26.6 °F - 17.6 °F 69% 30.69 in 10.0 mi Calm Calm - N/A   Clear
5:56 PM 24.8 °F - 17.6 °F 74% 30.69 in 10.0 mi Calm Calm - N/A   Clear
6:16 PM 24.8 °F - 17.6 °F 74% 30.70 in 10.0 mi Calm Calm - N/A   Clear
6:36 PM 24.8 °F - 17.6 °F 74% 30.70 in 10.0 mi Calm Calm - N/A   Clear
6:56 PM 24.8 °F - 15.8 °F 69% 30.71 in 10.0 mi Calm Calm - N/A   Clear
7:16 PM 21.2 °F - 14.0 °F 74% 30.71 in 10.0 mi Calm Calm - N/A   Clear
7:36 PM 21.2 °F - 15.8 °F 80% 30.71 in 10.0 mi Calm Calm - N/A   Clear
7:56 PM 19.4 °F 14.3 °F 14.0 °F 80% 30.71 in 10.0 mi ENE 3.5 mph - N/A   Clear
8:16 PM 21.2 °F - 17.6 °F 86% 30.71 in 10.0 mi Calm Calm - N/A   Clear
8:36 PM 19.4 °F - 12.2 °F 74% 30.72 in 10.0 mi Calm Calm - N/A   Clear
8:56 PM 19.4 °F - 15.8 °F 86% 30.72 in 10.0 mi Calm Calm - N/A   Clear
9:16 PM 15.8 °F 10.2 °F 10.4 °F 79% 30.72 in 10.0 mi NE 3.5 mph - N/A   Clear
9:36 PM 17.6 °F - 14.0 °F 86% 30.72 in 10.0 mi Calm Calm - N/A   Clear
9:56 PM 15.8 °F 10.2 °F 10.4 °F 79% 30.73 in 10.0 mi NE 3.5 mph - N/A   Clear
10:16 PM 15.8 °F - 10.4 °F 79% 30.73 in 10.0 mi Calm Calm - N/A   Clear
10:36 PM 15.8 °F - 10.4 °F 79% 30.73 in 10.0 mi Calm Calm - N/A   Clear
10:56 PM 14.0 °F - 8.6 °F 79% 30.73 in 10.0 mi Calm Calm - N/A   Clear
11:16 PM 14.0 °F - 8.6 °F 79% 30.73 in 10.0 mi Calm Calm - N/A   Clear
11:36 PM 12.2 °F - 8.6 °F 85% 30.73 in 10.0 mi Calm Calm - N/A   Clear
11:56 PM 12.2 °F - 8.6 °F 85% 30.73 in 10.0 mi Calm Calm - N/A   Clear